This is the latest recevied weather packets stored in our database for station/object N4DWK. If no packets are shown the sender has not sent any weather packets the latest 10 day(s).
| Time | Temp. | Humidity | Pressure | Rain* | Wind** | Luminosity | Snow |
|---|---|---|---|---|---|---|---|
| 1778277005 | 22.78° C | 37% | 1013.3 hPa | 0 mm | - | 274 W/m² | - |
| 1778276704 | 22.78° C | 37% | 1013.3 hPa | 0 mm | - | 288 W/m² | - |
| 1778276405 | 22.78° C | 39% | 1013.3 hPa | 0 mm | - | 301 W/m² | - |
| 1778276104 | 22.78° C | 37% | 1013.4 hPa | 0 mm | - | 316 W/m² | - |
| 1778275805 | 22.78° C | 36% | 1013.4 hPa | 0 mm | - | 329 W/m² | - |
| 1778275504 | 22.78° C | 36% | 1013.3 hPa | 0 mm | - | 339 W/m² | - |
| 1778275204 | 23.33° C | 37% | 1013.3 hPa | 0 mm | - | 352 W/m² | - |
| 1778274905 | 23.33° C | 35% | 1013.2 hPa | 0 mm | - | 364 W/m² | - |
| 1778274606 | 22.78° C | 36% | 1013.2 hPa | 0 mm | - | 376 W/m² | - |
| 1778274304 | 22.78° C | 38% | 1013.3 hPa | 0 mm | - | 388 W/m² | - |
| 1778274004 | 22.78° C | 36% | 1013.3 hPa | 0 mm | - | 401 W/m² | - |
| 1778273705 | 22.78° C | 38% | 1013.4 hPa | 0 mm | - | 415 W/m² | - |
| 1778273405 | 22.78° C | 36% | 1013.4 hPa | 0 mm | - | 425 W/m² | - |
| 1778272804 | 22.78° C | 37% | 1013.6 hPa | 0 mm | - | 446 W/m² | - |
| 1778272505 | 22.78° C | 37% | 1013.5 hPa | 0 mm | - | 457 W/m² | - |
| 1778272205 | 23.33° C | 37% | 1013.6 hPa | 0 mm | - | 466 W/m² | - |
| 1778271606 | 22.78° C | 38% | 1013.7 hPa | 0 mm | - | 490 W/m² | - |
| 1778271305 | 22.22° C | 39% | 1013.7 hPa | 0 mm | - | 497 W/m² | - |
| 1778271005 | 22.78° C | 38% | 1013.7 hPa | 0 mm | - | 510 W/m² | - |
| 1778270705 | 22.22° C | 39% | 1013.8 hPa | 0 mm | - | 519 W/m² | - |
| 1778270405 | 22.22° C | 39% | 1013.7 hPa | 0 mm | - | 529 W/m² | - |
| 1778270105 | 22.22° C | 39% | 1013.8 hPa | 0 mm | - | 538 W/m² | - |
| 1778269805 | 22.22° C | 40% | 1014 hPa | 0 mm | - | 547 W/m² | - |
| 1778269505 | 22.22° C | 39% | 1014 hPa | 0 mm | - | 555 W/m² | - |
| 1778269205 | 22.22° C | 39% | 1014.1 hPa | 0 mm | - | 561 W/m² | - |
* Rain latest hour (hover to see other rain measurements)
** Current wind speed in m/s (hover to see current wind gust speed)